Tracking 19817 objects as of 18-Aug-2019
HD Live streaming from Space Station
objects crossing your sky now

USA 82

Track USA 82 now!
USA 82 is classified as:


NORAD ID: 22009
Int'l Code: 1992-037A
Perigee: 36,160.8 km
Apogee: 36,255.0 km
Inclination: 12.5 °
Period: 1,457.3 minutes
Semi major axis: 42578 km
RCS: Unknown
Launch date: July 2, 1992
Source: United States (US)
Launch site: AIR FORCE EASTERN TEST RANGE (AFETR)

Super High Frequency (SHF) for U.S. government and military; sophisticated survivability enhancement; worldwide, longhaul coverage; X-band.
aabbcc
Your satellite tracking list
Your tracking list is empty




NASA's NSSDC Master Catalog

Two Line Element Set (TLE):
1 22009U 92037A   19228.82345452 -.00000229 +00000-0 +00000-0 0  9993
2 22009 012.5432 027.3286 0011065 336.9470 023.0816 00.98812466000469
Source of the keplerian elements: McCants